Location: Edemissen
(51.7689°N, 9.8634°E)
Time: 22:29:37
(UTC+00:00)

DUMSAT - Visible Passes

Search period start: 18 November 2025 00:00
Search period end: 28 November 2025 00:00
Orbit: 559 x 593 km, 64.9° (Epoch: 18 November)

Date Brightness Start Highest point End Pass type
(mag) Time Alt. Az. Time Alt. Az. Time Alt. Az.
18 Nov 6.7 03:51:39 24° NNE 03:52:17 25° NNE 03:55:54 10° E visible
18 Nov 5.0 05:27:53 13° NW 05:31:48 88° SW 05:36:08 10° SE visible
19 Nov 6.4 03:55:20 29° NNE 03:56:00 30° NNE 03:59:51 10° E visible
19 Nov 5.0 05:31:35 14° NW 05:35:17 63° SW 05:39:33 10° SSE visible
20 Nov 6.1 03:59:05 36° NNE 03:59:40 38° NE 04:03:44 10° ESE visible
20 Nov 5.4 05:35:20 15° NW 05:38:43 44° WSW 05:42:49 10° SSE visible
21 Nov 5.6 04:02:54 48° NNE 04:03:17 49° NE 04:07:30 10° ESE visible
21 Nov 5.9 05:39:09 15° WNW 05:42:06 30° WSW 05:45:54 10° S visible
22 Nov 5.1 04:06:48 67° NE 04:06:52 67° NE 04:11:10 10° SE visible
22 Nov 6.4 05:43:03 14° WNW 05:45:26 22° WSW 05:48:43 10° SSW visible
23 Nov 8.3 02:34:30 10° E 02:34:30 10° E 02:34:30 10° E visible
23 Nov 5.0 04:10:45 75° SE 04:10:45 75° SE 04:14:44 10° SE visible
23 Nov 6.8 05:47:01 12° W 05:48:43 15° WSW 05:51:11 10° SSW visible
24 Nov 5.5 04:14:48 49° S 04:14:48 49° S 04:18:08 10° SSE visible
25 Nov 6.2 04:18:57 29° S 04:18:57 29° S 04:21:24 10° SSE visible
26 Nov 6.9 04:23:12 17° S 04:23:12 17° S 04:24:28 10° S visible
